Location: Cheyres
(46.8153°N, 6.7877°E)
Time: 10:05:26
(UTC+00:00)

Gbstr 26 Del rocket - Pass Details

Date: 22 September 2021
Orbit: 492 x 1263 km, 51.8° (Epoch: 18 October)

Event Time Altitude Azimuth Distance (km) Brightness Sun altitude
Exits shadow 01:22:14 63° 1° (N) 1,347 4.7 -36.4°
Maximum altitude 01:22:26 63° 8° (N) 1,343 4.7 -36.4°
Drops below altitude 10° 01:29:48 10° 89° (E) 2,974 6.9 -35.6°
Sets 01:32:23 0° 93° (E) 3,836 7.5 -35.4°
